Location: Old Broadwell Mill Observatory
(33.8015°N, 85.8137°W)
Time: 10:00:26
(UTC-05:00)

Daily predictions for brighter satellites

Satellite Brightness Start Highest point End
(mag) Time Altitude Azimuth Time Altitude Azimuth Time Altitude Azimuth
ATLAS CENTAUR Rocket 4.4 19:59:53 10° W 20:06:33 68° S 21:18:56 10° ESE
ATLAS CENTAUR Rocket 4.4 19:59:53 10° W 20:06:33 68° S 21:18:57 10° ESE
ATLAS CENTAUR Rocket 4.4 19:59:53 10° W 20:06:34 68° S 21:18:56 10° ESE
Cosmos 1674 4.0 20:22:15 10° SE 20:25:16 22° E 20:28:19 10° NE
ALOS 2.3 20:22:59 10° SSE 20:27:38 87° ENE 20:32:20 10° N
Cosmos 371 Rocket 3.3 20:23:40 10° NNW 20:28:28 71° ENE 20:33:14 10° SSE
Cosmos 1553 Rocket 4.2 20:24:44 10° N 20:31:02 58° E 20:37:11 10° SSE
H-2A R/B 3.6 20:31:30 10° S 20:33:54 19° SE 20:39:04 10° E
Cosmos 1538 Rocket 4.1 20:30:18 10° NNW 20:35:38 70° ENE 20:40:59 10° SSE
Cosmos 540 Rocket 4.4 20:30:44 10° NNW 20:35:43 49° WSW 20:40:40 10° S
OTV 4 2.4 20:35:31 10° S 20:36:54 13° SE 20:37:59 11° ESE
Cosmos 1833 4.2 20:32:16 10° S 20:37:55 66° ESE 20:43:34 10° NNE
USA 229 DEB 3.9 20:31:08 10° SSW 20:38:02 79° WNW 20:45:03 10° NNE
USA 229 3.9 20:31:14 10° SSW 20:38:08 80° WNW 20:45:09 10° NNE
Tiangong 1 1.1 20:35:59 10° SW 20:39:01 53° SSE 20:42:03 10° ENE
AVUM R/B 3.0 20:40:07 10° SSW 20:42:19 58° WNW 20:44:43 10° NNE
YAOGAN 11 4.0 20:39:52 10° SSE 20:44:09 75° ENE 20:48:30 10° N
Hubble Space Telescope 2.8 20:43:14 10° S 20:44:22 11° SSE 20:45:05 11° SE
H-2A R/B 3.4 20:43:39 10° S 20:47:26 55° W 20:51:11 10° NNW
Cosmos 1939 Rocket 3.5 20:45:33 11° SE 20:48:58 37° ENE 20:52:35 10° N
H-2A R/B 2.7 20:45:08 10° SE 20:49:21 43° ENE 20:53:39 10° N
CZ-4 DEB 3.2 20:47:16 10° S 20:50:25 62° W 20:53:36 10° NNW
ATLAS CENTAUR R/B 3.1 20:48:18 10° NW 20:52:06 29° WSW 20:55:38 10° S
Cosmos 773 Rocket 4.2 20:47:22 10° N 20:52:28 55° ENE 20:57:03 13° SSE
Cosmos 1328 Rocket 3.7 20:49:45 10° N 20:54:12 83° W 20:58:37 10° S
Cosmos 1437 Rocket 2.8 20:50:48 10° N 20:54:34 55° E 20:57:55 13° SSE
SPOT 5 3.8 20:53:20 14° SE 20:56:34 30° ENE 21:00:42 10° N
COSMOS 2428 4.3 20:53:29 10° N 20:57:41 21° ENE 21:01:17 12° ESE
NOSS 3-1 (A) 3.9 20:52:47 10° S 20:57:53 33° ESE 21:03:20 10° NE
SJ-11-01 4.3 20:56:20 10° SSE 21:01:02 83° ENE 21:05:47 10° N
Cosmos 2219 Rocket 4.3 21:03:51 10° NE 21:05:37 11° NE 21:07:24 10° ENE
Cosmos 304 Rocket 4.3 21:01:46 10° N 21:06:23 44° ENE 21:09:26 19° SE
Meteor 2-2 Rocket 4.4 21:01:02 10° N 21:07:04 80° E 21:13:02 10° S
Cosmos 1437 2.6 21:14:41 13° S 21:17:35 85° E 21:20:53 10° N
Cosmos 1328 3.7 21:15:23 15° S 21:18:34 65° E 21:22:29 10° NNE
ATLAS 2AS CENTAUR R/B 3.9 21:18:20 19° SE 21:20:19 21° ESE 21:25:49 10° ENE
Cosmos 1726 3.7 21:20:11 10° NNE 21:22:59 19° ENE 21:23:25 19° E
Envisat 2.9 21:19:28 17° SSE 21:23:23 83° ENE 21:28:29 10° N
ERS-1 Rocket 3.6 21:19:35 10° S 21:24:29 54° W 21:29:26 10° NNW
Cosmos 2219 3.2 21:20:53 10° SSW 21:26:38 90° S 21:32:25 10° NNE
Delta 2 Rocket 3.2 21:26:17 10° W 21:29:53 62° N 21:31:53 22° ENE
BREEZE M DEB (TANK) 3.5 21:32:43 10° W 21:34:41 23° SSW 21:35:24 22° S
Cosmos 2237 Rocket 4.2 21:34:18 10° NNE 21:37:19 14° NE 21:39:42 11° E
Cosmos 2151 3.6 21:35:20 10° SSW 21:39:25 54° W 21:43:33 10° N
Cosmos 2322 3.7 21:34:01 10° NNW 21:39:45 82° WSW 21:43:02 26° SSE
Cosmos 2322 Rocket 4.1 21:35:36 10° NW 21:40:01 24° WSW 21:44:27 10° SSW
Cosmos 1271 Rocket 4.4 21:37:15 10° NNE 21:40:05 20° ENE 21:40:05 20° ENE
Cosmos 2112 Rocket 3.9 21:35:33 10° NNW 21:40:49 80° ENE 21:43:24 31° SSE
Cosmos 1703 4.5 21:41:15 26° E 21:41:15 26° E 21:44:12 10° NNE
SL-14 R/B 3.4 21:40:06 41° SE 21:41:03 53° E 21:44:56 10° NNE
Cosmos 1937 Rocket 3.9 21:41:23 32° SE 21:43:10 43° ESE 21:48:04 10° NNE
Terra 3.6 21:43:25 16° E 21:44:16 17° ENE 21:47:18 10° NNE
NOSS 3-1 (C) 3.5 21:38:33 10° SW 21:44:18 76° WNW 21:50:38 10° NNE
Cosmos 2298 Rocket 3.9 21:39:47 12° S 21:44:45 79° ESE 21:50:04 10° NNE
Meteor 1-4 Rocket 4.0 21:42:37 10° NNE 21:45:29 24° ENE 21:45:29 24° ENE
MetOp-B 4.1 21:44:55 29° SSE 21:47:45 86° ENE 21:53:08 10° NNW
Meteor 1-27 4.3 21:42:41 10° N 21:48:17 61° E 21:50:34 35° SE
Cosmos 2360 Rocket 2.4 21:43:37 10° NNW 21:49:13 65° WSW 21:52:21 27° S
Sich 1 3.0 21:48:46 41° SSE 21:50:06 63° E 21:54:28 10° NNE
SL-16 R/B 4.3 21:47:25 10° NW 21:51:31 21° W 21:55:38 10° SSW
CZ-4 SHROUD 3.8 21:51:29 44° SW 21:52:03 51° W 21:55:07 10° NNW
FALCON 9 R/B 4.4 21:15:11 10° WSW 21:52:28 89° N 22:00:29 10° E
USA 245 3.8 21:53:37 29° NNE 21:53:37 29° NNE 21:54:59 10° N
Cosmos 1633 Rocket 3.0 21:52:39 46° SSE 21:53:47 66° E 21:58:09 10° NNE
Cosmos 990 Rocket 4.5 21:53:44 36° ESE 21:54:05 37° E 21:58:47 10° NE
Cosmos 2058 3.3 21:52:03 23° SSW 21:54:30 61° W 21:58:33 10° N
DELTA 2 R/B (1) 3.5 21:50:27 10° WNW 21:56:01 86° SSW 21:58:07 40° ESE
SWAS 4.5 21:52:32 10° NNW 21:56:52 75° WSW 21:58:00 47° S
Cosmos 1626 4.2 22:01:02 17° ENE 22:01:02 17° ENE 22:02:26 10° NE
OAO 2 Rocket 3.3 21:54:57 10° WSW 22:00:16 80° SSE 22:03:20 26° E
SL-08 RB Rocket 3.7 22:06:50 56° ESE 22:07:25 62° ENE 22:11:52 10° N
H-2A R/B 2.8 22:08:02 35° E 22:09:01 38° ENE 22:14:00 10° N
CZ-4 R/B 3.8 22:06:30 10° N 22:11:26 83° WNW 22:13:19 38° SSW
Cosmos 2227 Rocket 2.3 22:11:30 48° SE 22:12:24 54° ESE 22:17:54 10° NNE
YAOGAN 6 3.2 22:12:45 45° WSW 22:13:09 47° W 22:16:40 10° NNW
CZ-4B R/B 4.1 22:08:01 10° N 22:13:11 57° WNW 22:17:02 17° SSW
Tiangong 1 3.3 22:13:04 10° WNW 22:15:44 25° NNW 22:17:12 18° NNE
Cosmos 1300 3.2 22:13:45 10° NNW 22:17:29 51° W 22:17:52 49° WSW
SPOT 1/Viking Rocket 3.8 22:19:48 43° SSW 22:21:21 64° WSW 22:26:28 10° NNW
Cosmos 1241 Rocket 4.3 22:22:15 31° SSW 22:25:24 81° ESE 22:31:39 10° NNE
Cosmos 1898 Rocket 4.3 22:21:56 14° SW 22:26:11 47° WNW 22:31:13 10° N
IGS 5A 4.3 22:29:10 38° NE 22:29:10 38° NE 22:32:28 10° N
Cosmos 2333 Rocket 2.7 22:24:58 10° N 22:30:30 46° ENE 22:31:18 43° E
SL-16 R/B 4.0 22:27:09 10° NNE 22:30:53 17° ENE 22:32:01 17° ENE
Cosmos 2297 Rocket 2.1 22:39:29 64° ESE 22:39:29 64° ESE 22:45:01 10° NNE
Cosmos 1455 3.5 22:36:23 10° N 22:38:49 35° NNE 22:38:49 35° NNE
Nadezhda 1 Rocket 3.8 22:35:14 10° N 22:41:20 77° E 22:42:17 64° SE
COSMOS 2428 3.3 22:36:43 10° NNW 22:42:09 48° WSW 22:43:18 42° SW
ARGOS 3.8 22:41:02 41° SW 22:42:20 49° W 22:47:33 10° NNW
Cosmos 1470 Rocket 3.9 22:45:42 62° WNW 22:45:42 62° WNW 22:49:44 10° N
Cosmos 1933 Rocket 3.8 22:46:48 65° WNW 22:46:48 65° WNW 22:51:05 10° N
Cosmos 1745 Rocket 4.3 22:47:12 38° SW 22:49:33 61° W 22:55:41 10° N
Cosmos 2219 Rocket 2.0 22:44:40 10° NNW 22:50:17 88° WSW 22:50:35 81° S
Cosmos 1869 4.5 22:53:35 10° N 22:56:15 40° N 22:56:15 40° N
Cosmos 1709 Rocket 3.9 22:57:41 66° E 22:57:48 66° E 23:03:50 10° NNE
Cosmos 1726 4.4 22:55:28 10° NW 22:58:06 19° W 22:58:06 19° W
DMSP B5D2-2 4.3 22:55:42 10° N 23:00:52 64° WNW 23:01:25 59° WSW
NOSS 0 Rocket 3.8 22:58:46 10° NNW 23:04:56 78° WSW 23:05:19 75° SSW
Cosmos 1980 3.6 23:03:41 10° NNW 23:09:10 83° WNW 23:09:10 83° WNW
ATLAS 2AS CENTAUR R/B 3.2 23:05:37 24° SW 23:10:28 69° WNW 23:18:27 10° NNE
Terra 2.9 23:22:18 39° WNW 23:22:18 39° WNW 23:26:07 10° NNW
Cosmos 2237 Rocket 2.3 23:16:15 10° NNW 23:21:31 69° WNW 23:21:31 69° WNW
Cosmos 2181 Rocket 3.9 23:22:46 10° N 23:29:09 82° ENE 23:29:09 82° ENE
ATLAS 3B R/B 2.9 23:23:55 10° NNW 23:30:43 55° NE 23:31:15 54° ENE
Lacrosse 4 Rocket 3.1 23:26:59 10° N 23:29:44 31° NNE 23:29:44 31° NNE
Cosmos 2184 Rocket 4.4 23:35:14 49° ENE 23:35:14 49° ENE 23:40:22 10° NNE
H-2A R/B 3.9 23:48:41 22° W 23:48:41 22° W 23:52:38 10° NW
